カタログに戻る

CZ-6A DEB

運用中PO
NORAD 61176·DEBRIS·🇨🇳 China

打ち上げ Aug 6, 2024 から Taiyuan Satellite Launch Center

Loading…

次のパス (今後24時間)

TLE

最新Source: Space-Track

元期: Sep 14, 2026, 06:51 UTC

1 61176U 24140RW  26257.28562117  .00001030  00000-0  15736-3 0  9995
2 61176  89.0786 266.5285 0185493 315.3050  43.3337 14.62087484109830

AllMySatでCZ-6A DEBをリアルタイム追跡

Download on the App Store